Location: Unspecified
(29.9680°N, 0.0000°E)
Time: 00:31:47
(UTC+00:00)

A-11 Canister half - Pass Details

Date: 23 June 2019
Orbit: 1526 x 1683 km, 47.3° (Epoch: 21 July)

Event Time Altitude Azimuth Distance (km) Brightness Sun altitude
Rises 04:22:45 0° 249° (WSW) 4,777 - -7.8°
Exits shadow 04:25:01 - 253° (WSW) 4,074 10.6 -7.4°
Reaches altitude 10° 04:26:01 10° 255° (WSW) 3,772 10.4 -7.2°
Maximum altitude 04:35:11 51° 329° (NNW) 1,881 9.5 -5.5°
Drops below altitude 10° 04:44:12 10° 44° (NE) 3,697 12.6 -3.8°
Sets 04:47:23 0° 50° (NE) 4,677 13.8 -3.2°
